Location: Newark
(54.2500°N, 9.1833°E)
Time: 01:59:19
(UTC+00:00)

Vanguard 3 - Visible Passes

Search period start: 27 February 2021 00:00
Search period end: 09 March 2021 00:00
Orbit: 508 x 3261 km, 33.3° (Epoch: 26 February)

Date Brightness Start Highest point End Pass type
(mag) Time Alt. Az. Time Alt. Az. Time Alt. Az.
27 Feb 10.0 17:53:22 10° SW 18:03:10 23° S 18:09:58 10° SE visible
27 Feb 9.9 20:09:22 10° WSW 20:13:45 14° SSW 20:16:10 12° SSW visible
28 Feb 9.9 18:51:49 10° WSW 19:00:12 21° SSW 19:06:09 10° SSE visible
01 Mar 10.1 17:34:56 10° WSW 17:46:08 26° S 17:53:49 10° SE visible
01 Mar 10.0 19:51:23 10° WSW 19:56:49 15° SSW 20:01:05 10° S visible
02 Mar 10.1 18:33:37 10° WSW 18:43:09 22° SSW 18:49:54 10° SSE visible
03 Mar 10.2 17:16:32 10° WSW 17:28:58 28° SSW 17:37:30 10° SE visible
03 Mar 10.2 19:33:25 10° WSW 19:39:45 15° SW 19:44:43 10° S visible
04 Mar 10.2 18:15:24 10° WSW 18:25:59 23° SSW 18:33:30 10° SSE visible
05 Mar 10.4 19:15:25 10° WSW 19:22:34 16° SW 19:28:09 10° S visible
06 Mar 10.4 17:57:11 10° WSW 18:08:41 24° SSW 18:16:57 10° SSE visible
07 Mar 10.6 18:57:26 10° WSW 19:05:14 16° SW 19:11:23 10° S visible
08 Mar 10.6 17:39:00 10° WSW 17:51:15 25° SSW 18:00:15 10° SSE visible
